Regional Weather Roundup
Issued by NWS

Home | Current Version | Previous Version | Text Only | Print | Product List | Glossary On
Versions: 1 2 3 4 5 6 7 8 9 10 11 12 13 14 15 16 17 18 19 20 21 22 23 24 25 26 27 28 29 30 31 32 33 34 35 36 37 38 39 40 41 42 43 44 45 46 47 48 49 50
000
ASUS42 KKEY 270710
RWRKEY

FLORIDA REGIONAL WEATHER ROUNDUP FOR THE FLORIDA KEYS
NATIONAL WEATHER SERVICE KEY WEST FLORIDA
300 AM EDT FRI MAR 27 2015

...SOUTH FLORIDA AND THE KEYS...

CITY           SKY/WX    TMP DP  RH WIND       PRES   REMARKS
FORT MYERS     CLEAR     75  73  93 W9        29.93R
SW REGIONAL AP CLEAR     74  71  91 W9        29.93F
NAPLES         PTCLDY    77  75  93 S10       29.91F
MIAMI          MOCLDY    78  72  81 S9        29.94F
WEST KENDALL   MOCLDY    77  72  84 S6        29.94F
HOMESTEAD      CLEAR     75  72  89 S6        29.95S
MARATHON       CLEAR     80  74  81 S8        29.95F
BOCA CHICA NAS CLEAR     79  73  82 SW14      29.95F
KEY WEST INTL  CLEAR     79  75  87 SW12      29.95F

...INTERNATIONAL WEATHER...

CITY           SKY/WX    TMP DP  RH WIND       PRES   REMARKS
NASSAU BAHAMAS PTCLDY    79  72  78 S5        29.99
CANCUN MEXICO  CLEAR     79  73  83 SE9       29.92F
COZUMEL MEXICO PTCLDY    70  70 100 SE3       29.92F

ADJACENT COASTAL WATERS...

STATION/POSITION TIME  SKY/WX   TEMP    WIND        PRES    WAVE
                                AIR SEA DIR/SP/G            HT/PER
                 (UTC)          (F)     (DEG/KT/KT) (MB)    (FT/S)
PULASKI SHOAL LI 0600            78      CALM  /  1 1014.1F
SAND KEY         0650            79     210/ 12/ 13 1014.2F
SOMBRERO KEY     0600            79     170/ 18/ 19 1014.9F
LONG KEY         0600            80 82  180/ 16/ 17 1015.2F
MOLASSES REEF    0600            78 78  190/ 17/ 19 1014.2F
FOWEY ROCKS      NOT AVBL

$$


USA.gov is the U.S. government's official web portal to all federal, state and local government web resources and services.